TimeAWST,TemperatureF,Dew PointF,Humidity,Sea Level PressureIn,VisibilityMPH,Wind Direction,Wind SpeedMPH,Gust SpeedMPH,PrecipitationIn,Events,Conditions,WindDirDegrees,DateUTC
12:00 AM,68,52,46,29.89,,Calm,Calm,,,,,,2013-09-09 16:00:00
12:00 AM,68.0,51.8,56,29.89,-9999.0,Calm,Calm,-,N/A,,Unknown,0,2013-09-09 16:00:00
1:00 AM,64.4,51.8,64,29.89,-9999.0,SSW,3.5,-,N/A,,Unknown,200,2013-09-09 17:00:00
2:00 AM,69.8,53.6,56,29.86,-9999.0,SW,6.9,-,N/A,,Unknown,220,2013-09-09 18:00:00
3:00 AM,71,55,47,29.86,,SW,9.2,,,,,220,2013-09-09 19:00:00
3:00 AM,71.6,55.4,57,29.86,-9999.0,SW,9.2,-,N/A,,Unknown,220,2013-09-09 19:00:00
4:00 AM,69.8,55.4,60,29.86,-9999.0,SW,9.2,-,N/A,,Scattered Clouds,220,2013-09-09 20:00:00
5:00 AM,69.8,55.4,60,29.86,-9999.0,SSW,9.2,-,N/A,,Mostly Cloudy,210,2013-09-09 21:00:00
6:00 AM,70,54,47,29.89,,SSW,9.2,,,,,200,2013-09-09 22:00:00
6:00 AM,69.8,53.6,56,29.89,-9999.0,SSW,9.2,-,N/A,,Unknown,200,2013-09-09 22:00:00
7:00 AM,73.4,53.6,50,29.92,-9999.0,West,3.5,-,N/A,,Unknown,260,2013-09-09 23:00:00
8:00 AM,80.6,51.8,37,29.95,-9999.0,West,4.6,-,N/A,,Unknown,260,2013-09-10 00:00:00
9:00 AM,86,49,18,29.94,,SSW,6.9,,,,,200,2013-09-10 01:00:00
9:00 AM,86.0,48.2,27,29.95,-9999.0,SSW,6.9,-,N/A,,Unknown,200,2013-09-10 01:00:00
10:00 AM,89.6,48.2,24,29.92,-9999.0,SW,10.4,-,N/A,,Unknown,230,2013-09-10 02:00:00
11:00 AM,93.2,48.2,21,29.89,-9999.0,WSW,9.2,-,N/A,,Unknown,240,2013-09-10 03:00:00
12:00 PM,95.0,48.2,20,29.86,-9999.0,South,8.1,-,N/A,,Unknown,170,2013-09-10 04:00:00
1:00 PM,95.0,44.6,18,29.80,-9999.0,WSW,8.1,-,N/A,,Unknown,250,2013-09-10 05:00:00
2:00 PM,96.8,44.6,17,29.80,-9999.0,SSE,10.4,-,N/A,,Unknown,150,2013-09-10 06:00:00
3:00 PM,96,45,10,29.77,,WNW,4.6,,,,,300,2013-09-10 07:00:00
3:00 PM,96.8,44.6,17,29.77,-9999.0,WNW,4.6,-,N/A,,Unknown,300,2013-09-10 07:00:00
4:00 PM,95.0,50.0,22,29.77,-9999.0,NNW,10.4,-,N/A,,Unknown,330,2013-09-10 08:00:00
5:00 PM,89.6,57.2,33,29.77,-9999.0,WNW,13.8,-,N/A,,Unknown,300,2013-09-10 09:00:00
6:00 PM,83,59,34,29.80,,NW,9.2,,,,,320,2013-09-10 10:00:00
6:00 PM,84.2,59.0,42,29.80,-9999.0,NW,9.2,-,N/A,,Unknown,320,2013-09-10 10:00:00
7:00 PM,80.6,64.4,58,29.83,-9999.0,WNW,6.9,-,N/A,,Unknown,300,2013-09-10 11:00:00
8:00 PM,82.4,57.2,42,29.86,-9999.0,WSW,11.5,-,N/A,,Unknown,250,2013-09-10 12:00:00
9:00 PM,79,50,25,29.86,,West,8.1,,,,,260,2013-09-10 13:00:00
9:00 PM,78.8,50.0,36,29.86,-9999.0,West,8.1,-,N/A,,Unknown,260,2013-09-10 13:00:00
10:00 PM,78.8,53.6,42,29.86,-9999.0,SW,10.4,-,N/A,,Unknown,230,2013-09-10 14:00:00
11:00 PM,78.8,53.6,42,29.86,-9999.0,SW,11.5,-,N/A,,Unknown,230,2013-09-10 15:00:00